Theta_e
322 321 322 322 322 324 324 324 322 320 321 320 317 316 323 328 319 312 327 338 326 329 344 341 342 345 341 342 342 336 339 346 347 348 346 344 344 346 347 349 349 350 348 347 347 345 343 340 339 340 342 343 345 346 347 349 349 349 351 352 352 353 353 354 354 354 354 354 354 354 354 354 355 355 355 355 355 355 355 355 354 354 354 354 353 353 353
322 320 321 322 322 323 323 323 323 320 320 320 318 321 323 325 322 321 331 336 331 333 338 338 343 344 340 343 343 338 343 350 353 355 350 343 341 342 344 346 346 347 347 347 347 347 347 343 340 340 341 343 345 346 347 348 349 350 351 352 352 353 354 354 354 354 355 355 355 355 355 354 355 355 355 355 355 355 355 355 355 354 354 354 353 353 352
323 322 322 322 320 321 322 323 324 322 320 320 318 320 322 322 323 324 328 332 333 333 336 339 339 336 332 333 336 340 345 348 352 355 351 347 344 342 342 344 344 345 346 347 347 347 348 346 341 339 341 342 344 345 347 348 349 350 350 352 353 353 354 355 354 355 355 355 356 356 355 355 355 355 355 355 355 356 355 355 355 355 355 354 353 353 353
326 323 321 320 319 321 323 323 326 325 321 320 319 320 324 323 322 324 322 322 327 334 337 335 333 334 334 333 336 340 342 346 352 355 356 359 354 345 342 343 345 345 344 346 348 346 345 343 340 340 341 342 344 346 347 348 349 350 351 352 353 353 354 354 354 355 355 355 356 356 356 356 356 356 356 355 355 355 355 355 355 355 355 354 354 353 353
329 324 319 320 321 324 323 320 324 326 322 323 322 321 325 325 322 323 320 319 326 333 334 333 332 332 331 331 334 334 338 350 360 358 357 360 355 346 342 341 344 345 342 343 345 344 343 341 340 341 342 342 344 346 346 348 349 349 351 352 353 354 354 355 355 355 355 356 356 356 356 356 356 356 356 356 356 356 355 355 355 355 355 354 354 354 353
328 323 318 322 326 325 323 323 330 333 328 325 322 321 325 325 323 323 322 325 330 329 330 332 329 328 335 346 349 343 344 357 371 370 361 355 351 346 343 342 343 343 343 343 343 341 340 340 340 342 342 343 344 345 346 348 349 350 351 352 353 354 354 355 355 355 355 356 356 356 356 356 356 356 356 356 356 356 356 356 355 355 355 354 354 354 354
326 323 323 328 330 326 323 327 335 337 334 331 328 324 323 322 324 323 325 328 328 328 332 328 325 342 363 370 367 357 351 356 368 378 374 363 356 352 348 346 345 346 348 347 345 342 339 339 341 342 343 343 344 345 347 348 349 350 351 352 353 354 354 355 355 355 356 356 356 356 356 356 357 357 356 357 356 356 356 356 355 355 355 355 354 354 354
325 326 328 331 329 325 327 334 337 339 340 339 339 335 324 323 328 324 322 329 329 329 331 325 335 364 371 364 360 357 355 355 357 367 371 363 356 351 345 344 348 350 348 344 343 341 339 340 342 342 343 345 345 346 347 348 350 350 351 352 353 354 354 355 355 356 356 356 356 357 356 357 357 357 357 357 357 357 356 356 356 355 355 355 355 354 354
324 326 328 330 328 328 337 344 341 338 340 339 341 345 341 340 344 335 324 325 328 332 332 328 341 360 361 357 356 352 351 354 351 354 356 352 351 351 345 343 346 344 340 337 338 339 339 341 342 342 344 345 346 347 348 348 350 351 351 353 353 353 354 355 355 356 356 357 357 357 357 357 357 357 357 357 357 357 357 356 356 356 355 355 355 354 354
324 324 324 328 333 335 340 342 338 335 337 336 337 342 346 347 347 343 336 329 328 335 339 335 339 349 349 351 359 354 351 352 349 349 351 347 349 350 347 348 350 345 342 340 338 339 340 342 343 343 344 345 347 348 349 349 350 350 351 352 353 354 354 355 355 356 356 357 357 357 357 357 357 357 357 357 357 357 357 356 356 356 355 355 355 355 354
324 323 324 329 335 338 340 340 336 334 336 337 335 337 341 343 340 337 342 341 333 332 339 339 341 344 340 347 362 359 352 350 346 347 349 347 348 348 346 349 352 349 347 344 339 340 341 342 343 344 344 346 348 348 349 350 350 351 351 352 352 353 354 354 355 356 356 357 357 357 358 357 357 357 357 357 358 357 357 357 356 356 356 355 355 355 355
323 324 327 331 334 337 339 339 337 335 335 336 335 334 337 340 335 333 340 345 342 336 336 337 341 342 337 346 358 352 347 347 344 344 347 347 348 348 346 347 348 348 348 348 345 343 341 342 344 345 345 346 347 348 349 350 350 351 351 352 352 353 353 354 355 356 356 357 357 357 358 358 358 358 358 357 358 357 357 357 357 356 356 355 355 355 354
320 322 323 327 332 337 341 340 337 335 336 335 333 334 336 334 332 333 340 348 349 344 336 334 344 354 352 351 350 344 343 345 344 342 344 345 345 345 345 346 348 348 349 350 350 349 347 345 344 345 347 347 346 348 349 349 350 351 351 351 351 352 353 355 355 356 357 357 357 357 358 358 358 358 358 358 358 357 357 357 357 357 356 355 355 355 354
323 327 325 325 330 335 339 340 336 334 339 340 335 332 331 330 332 338 343 347 349 348 346 347 353 353 346 345 346 344 343 345 344 344 344 344 344 345 344 345 346 347 348 349 349 350 351 350 346 345 347 347 348 349 349 349 350 350 351 351 351 352 353 354 355 356 356 356 357 358 358 358 358 358 358 358 358 358 358 357 357 357 356 355 355 354 354
328 335 331 330 335 336 336 342 342 338 341 341 334 329 329 329 331 336 342 346 346 345 348 349 348 347 345 345 345 343 343 344 344 345 345 345 345 345 344 344 344 345 347 347 346 347 349 351 351 349 347 347 348 349 350 350 350 350 351 351 351 352 352 353 354 355 356 356 357 357 358 358 358 358 358 358 358 358 358 357 357 356 356 355 355 354 354
331 335 334 334 340 338 336 342 345 339 335 332 329 327 329 329 327 329 336 342 342 343 346 347 346 346 346 344 343 343 343 344 344 345 345 345 345 344 344 344 343 343 344 345 345 345 346 348 352 352 351 350 349 348 350 351 350 350 352 351 351 352 352 352 353 354 355 356 357 357 358 358 358 358 358 358 358 358 358 358 357 356 356 355 355 354 353
331 336 338 338 340 338 336 339 339 334 330 328 326 327 329 329 327 327 329 332 334 336 340 344 345 344 343 341 341 342 342 343 344 345 344 343 344 344 342 341 342 343 344 344 344 345 344 345 348 349 351 352 351 350 352 352 351 351 351 352 353 352 352 352 353 353 354 355 356 357 358 358 358 358 358 358 358 358 357 357 357 356 356 355 354 353 351
330 334 338 338 338 336 335 335 334 331 329 327 325 325 327 327 326 325 326 327 328 330 333 337 340 339 338 339 340 341 342 343 343 343 344 343 343 343 342 342 342 343 343 344 344 344 344 344 345 345 347 348 349 350 353 355 355 354 353 352 353 353 352 352 352 352 353 354 355 356 357 357 358 358 358 358 357 357 357 357 357 357 356 354 353 352 350
330 333 336 337 336 335 334 334 333 331 328 326 324 325 325 325 326 326 327 328 328 328 329 331 334 335 335 338 340 340 341 343 343 344 345 344 343 343 343 342 342 343 343 344 344 344 344 344 344 345 346 346 347 350 353 354 357 358 357 355 353 352 352 353 352 352 352 353 354 355 356 357 358 358 358 358 357 357 357 356 356 356 355 353 352 351 349
328 333 336 337 334 334 335 337 336 333 330 328 326 326 326 325 326 326 327 329 330 331 331 329 329 331 333 335 338 340 340 341 342 343 344 344 344 343 343 342 343 343 343 344 344 344 344 345 344 345 345 345 346 349 351 353 355 358 360 359 356 354 352 351 351 351 352 352 353 354 355 356 357 357 358 357 357 357 357 357 357 356 354 353 351 350 349
323 329 335 336 335 334 334 335 335 333 330 329 328 327 326 326 326 326 327 328 329 330 331 330 329 329 331 332 334 336 337 339 340 341 343 343 343 343 343 343 343 343 343 344 344 344 344 344 345 344 344 344 345 347 350 352 354 356 358 359 359 357 355 353 351 350 350 351 351 352 354 356 356 357 357 357 357 357 357 357 357 356 354 353 351 350 349
323 329 334 337 338 337 335 333 333 330 328 329 330 329 328 327 326 326 327 327 327 328 330 330 330 330 330 330 331 333 334 335 337 338 340 341 341 341 342 343 343 343 343 344 344 344 344 344 344 344 343 343 344 346 348 350 352 353 355 357 357 356 356 354 353 352 351 350 350 351 352 353 355 356 357 357 358 357 357 357 356 356 355 353 351 350 347
324 328 331 333 336 338 335 333 333 330 328 333 336 332 328 327 325 324 325 326 327 328 329 329 330 330 329 328 330 331 332 332 333 335 337 338 339 339 340 341 341 342 342 342 343 343 343 344 344 343 342 342 344 346 347 348 350 351 352 352 352 352 351 350 349 349 349 348 348 350 351 352 354 354 354 354 355 356 356 356 355 355 354 352 351 351 348
320 323 327 329 332 335 334 332 332 329 327 331 333 330 327 327 325 323 323 323 324 326 328 329 329 328 326 326 327 329 330 331 331 333 334 335 336 337 337 339 339 340 340 341 341 341 342 343 344 343 343 342 343 345 345 346 347 349 349 349 348 346 346 346 346 345 345 345 345 345 346 347 349 349 347 346 348 350 353 354 354 353 352 350 349 349 350
321 324 326 327 329 331 331 330 331 331 328 327 329 329 328 327 324 322 323 323 323 324 326 328 327 325 324 324 325 327 329 329 329 330 331 332 332 334 335 337 338 338 339 339 340 340 340 341 343 344 343 343 343 342 342 341 342 343 344 344 343 343 342 341 340 341 342 342 342 342 341 340 341 341 341 341 342 343 343 345 348 349 350 350 350 349 349
323 324 325 326 328 329 330 329 330 330 329 327 326 326 326 324 324 324 325 324 324 324 326 328 327 324 322 323 324 326 327 328 327 327 328 329 329 329 331 334 336 336 337 337 339 340 340 340 341 342 343 343 342 341 340 340 340 339 338 338 339 340 340 338 338 337 338 338 339 339 338 337 336 336 337 338 340 339 336 335 337 338 341 345 348 347 344
323 324 325 328 329 329 330 330 330 328 327 325 324 323 323 323 323 324 325 325 324 324 324 325 325 323 322 322 323 325 326 326 326 326 327 328 328 328 329 332 334 335 335 336 337 339 340 340 340 340 341 342 343 343 342 342 342 340 338 337 338 339 339 338 337 335 335 336 337 336 336 335 334 334 334 336 337 337 335 335 335 333 331 333 338 341 340
324 325 325 328 330 329 328 328 327 327 327 327 324 322 322 324 325 326 327 328 326 325 325 324 323 325 325 323 322 324 325 326 327 328 327 327 328 328 330 332 334 334 335 335 335 337 339 339 340 341 341 342 343 343 343 343 341 340 339 338 337 337 336 336 335 334 334 335 335 335 335 334 334 333 333 333 334 335 336 336 334 330 326 326 330 336 339
325 326 326 327 328 327 326 326 326 327 328 327 326 325 324 325 326 327 328 328 328 328 328 326 324 324 325 323 323 325 326 327 327 327 327 327 328 330 331 333 333 333 334 334 334 335 336 337 338 339 340 341 342 342 342 342 341 340 339 338 337 336 336 335 335 334 334 334 335 334 334 333 332 331 331 331 331 333 333 330 326 322 321 322 324 326 328
325 326 327 327 325 325 325 326 326 326 326 326 327 326 325 326 328 329 329 329 329 329 329 328 326 325 325 324 324 324 325 326 326 326 326 327 329 330 331 333 334 335 334 334 334 335 335 336 336 337 338 341 341 341 341 341 340 339 338 338 337 336 336 335 335 334 334 334 334 334 333 331 331 331 330 330 330 330 329 326 323 322 323 324 321 318 316
325 325 325 324 323 324 326 326 326 325 325 325 326 326 326 326 329 330 330 331 331 330 329 328 329 329 327 325 324 324 324 325 326 326 327 328 330 331 332 333 334 335 335 335 335 336 336 336 336 336 338 340 341 341 341 340 339 338 338 337 336 336 336 335 335 335 334 334 333 333 332 331 330 330 330 330 330 330 330 329 328 328 328 325 321 318 317
324 324 324 324 324 325 326 326 327 326 326 325 326 327 328 328 329 331 332 332 331 330 329 329 329 329 327 325 325 325 326 327 327 327 328 328 329 331 331 331 332 333 333 334 335 336 337 336 336 335 337 339 340 340 340 340 339 338 337 336 335 335 335 334 334 334 334 333 333 332 332 331 330 330 329 329 329 330 330 330 329 329 329 325 321 320 323
325 325 325 326 326 327 327 328 328 328 328 328 328 329 329 329 329 330 331 331 329 329 329 328 327 326 326 326 326 327 328 328 328 328 328 328 328 329 330 330 330 330 331 332 334 336 337 337 335 335 335 337 338 339 339 339 338 337 336 336 335 335 335 334 334 334 334 333 333 332 331 330 330 330 329 329 329 329 329 330 329 328 326 324 321 320 323
326 326 326 327 327 327 328 328 328 328 328 329 328 329 329 329 328 328 328 328 328 328 328 327 327 327 327 328 327 327 328 329 329 329 328 327 328 328 328 328 329 329 330 331 333 335 337 337 335 334 334 335 336 337 338 338 338 337 336 336 336 335 335 335 334 334 333 333 333 333 332 331 331 331 330 330 330 330 330 329 329 328 325 323 323 325 327
325 325 326 326 327 327 327 328 328 328 328 328 328 329 329 329 329 328 328 328 328 328 327 327 327 327 327 327 327 327 327 327 328 328 327 327 327 327 327 327 327 327 327 329 330 332 335 337 336 334 334 334 335 335 336 337 337 337 337 336 336 336 336 335 335 334 334 333 333 333 332 331 331 331 331 331 331 331 330 329 328 327 325 323 324 327 330
324 325 325 325 326 326 327 328 328 328 328 328 328 328 328 328 328 328 328 327 327 327 327 327 327 326 326 326 327 326 326 326 325 325 325 325 325 324 324 324 325 325 325 326 327 329 332 334 334 334 333 334 334 334 334 335 336 336 336 337 336 336 336 335 335 335 334 334 334 334 333 332 331 331 331 331 330 330 330 329 328 326 324 323 323 325 327
322 323 324 325 325 325 326 327 327 327 327 328 328 327 327 327 327 327 327 327 326 327 326 326 326 326 325 325 325 325 325 324 324 323 323 322 321 321 322 322 323 324 324 325 326 328 330 331 332 332 332 332 333 333 333 333 334 335 336 336 336 336 336 335 335 335 334 334 334 334 334 333 332 331 331 330 330 329 329 328 327 326 324 323 323 324 325
322 323 323 324 324 325 325 325 326 326 326 326 326 326 326 326 326 326 326 325 325 325 325 325 325 325 325 325 325 324 324 323 322 321 321 320 320 321 321 321 322 323 324 324 325 327 329 330 330 331 330 330 331 331 331 332 332 333 334 334 335 335 335 335 335 335 335 334 334 334 334 333 333 332 331 330 329 329 328 327 326 324 323 322 322 323 324
322 322 322 323 323 323 324 324 324 324 325 325 325 325 325 325 324 325 325 325 324 325 325 325 325 325 324 324 324 323 323 322 321 320 320 320 320 321 322 322 322 323 324 324 325 325 327 328 330 330 330 330 330 330 330 331 331 331 332 332 333 333 333 333 333 333 333 334 334 334 334 333 333 333 332 331 330 329 328 327 326 324 323 323 324 326 327
320 320 321 321 321 322 323 323 323 323 323 324 324 324 325 325 324 324 325 325 324 324 324 323 323 323 323 322 322 322 322 323 322 321 321 321 321 322 322 323 323 323 323 323 323 323 324 324 326 327 327 328 329 329 329 329 330 330 330 330 331 331 332 332 332 332 331 331 331 331 332 333 333 333 332 332 331 330 329 328 327 326 325 325 326 327 328
319 319 319 319 320 320 321 321 321 321 321 321 321 322 322 323 323 323 324 324 323 322 322 321 321 321 320 320 321 321 322 323 323 323 323 323 323 323 323 323 324 323 322 321 321 321 321 321 322 322 322 323 324 326 327 328 328 328 328 329 329 329 329 329 329 330 329 328 327 328 329 330 332 332 331 330 331 331 330 329 328 327 326 326 325 325 325
318 318 318 319 319 319 318 319 319 319 319 319 319 319 319 319 319 319 319 319 319 320 320 320 320 320 320 320 320 321 322 323 323 323 322 322 323 323 323 322 323 323 321 319 319 319 320 320 321 321 320 319 320 323 325 326 326 326 327 327 327 328 328 328 328 328 327 326 326 326 327 328 329 329 328 328 329 329 329 328 327 326 326 325 325 325 325
316 316 316 317 317 317 317 316 317 317 317 316 316 317 317 317 317 317 316 316 316 317 317 318 318 318 318 318 319 319 320 321 321 321 320 319 319 320 320 320 321 320 319 318 318 319 319 320 320 320 318 317 318 321 323 324 324 324 325 326 326 326 327 327 327 327 326 326 326 327 327 327 328 327 326 327 327 327 326 325 325 324 324 324 325 325 325
312 312 312 313 314 314 315 315 315 316 316 315 315 315 316 316 316 316 316 316 316 316 315 315 316 316 316 316 316 316 317 318 318 319 318 318 317 317 317 318 318 317 317 317 317 318 319 319 319 318 316 316 317 318 319 318 318 319 320 321 322 323 324 324 324 325 325 326 326 326 326 326 326 326 326 326 326 326 326 325 324 322 321 321 323 324 324
309 310 310 311 311 311 312 313 313 314 314 314 314 314 314 314 315 315 315 314 315 314 314 314 314 314 314 313 313 313 313 314 314 316 316 317 316 316 316 316 316 315 315 315 315 316 317 317 316 316 316 316 316 316 315 315 314 314 314 315 316 317 317 318 319 321 322 324 324 324 325 325 325 325 325 325 325 326 326 325 324 323 322 322 323 324 324
308 308 309 310 310 310 310 311 311 312 312 313 313 313 313 312 312 312 312 312 312 312 312 312 312 312 312 312 311 311 311 311 311 312 313 314 314 314 314 314 314 313 313 313 314 314 315 314 314 314 315 315 315 314 314 313 312 312 312 312 312 312 312 313 314 315 316 317 318 319 321 323 324 324 323 323 323 324 325 326 326 326 325 325 325 325 324
307 307 308 308 309 310 310 310 310 310 311 311 312 312 312 311 310 310 310 310 310 310 310 310 310 310 310 310 310 310 310 309 309 309 309 310 311 311 311 310 310 310 311 311 311 312 312 311 311 312 312 313 313 313 312 311 311 311 311 310 310 310 310 310 311 311 312 312 312 313 314 316 318 320 320 321 321 322 323 323 324 326 326 327 327 327 326
307 307 307 307 308 309 310 310 310 310 310 311 312 312 311 310 309 309 308 308 308 308 308 308 308 308 308 308 308 308 308 308 308 307 307 307 307 308 308 308 308 308 308 308 308 308 308 308 309 309 309 309 309 309 309 309 309 309 309 309 309 309 309 309 309 310 310 311 311 311 311 311 312 314 315 316 318 319 319 319 319 321 323 325 326 327 327
307 307 307 307 307 308 309 310 310 310 310 311 311 312 311 309 309 308 308 307 307 306 306 306 306 306 306 307 306 306 306 306 306 306 305 305 305 305 305 305 306 306 306 306 307 307 306 306 306 306 306 307 307 306 307 307 307 307 308 308 308 308 308 308 308 309 309 310 310 310 310 309 309 310 310 311 312 313 314 314 314 314 316 319 321 323 325
306 306 307 307 307 307 308 308 309 309 309 310 310 310 310 309 309 308 307 307 306 306 305 304 304 304 305 305 305 305 304 304 304 304 303 303 303 303 303 303 303 303 304 304 305 305 305 305 304 304 304 304 304 304 304 304 305 305 305 306 306 307 307 308 308 309 309 309 308 308 308 308 308 308 308 308 309 309 310 310 310 310 311 312 314 316 318
305 305 306 306 306 306 307 308 308 308 308 308 308 308 308 308 308 307 307 306 306 306 305 305 304 304 304 303 304 304 303 303 303 302 302 302 301 301 301 301 301 301 302 302 303 304 305 305 305 304 303 303 303 302 302 302 302 303 303 303 304 305 305 306 307 308 308 307 307 307 307 307 307 307 307 307 307 307 307 307 308 308 308 309 309 310 311
304 304 304 305 306 306 306 306 306 307 307 307 307 307 306 306 306 306 305 305 304 304 304 304 304 304 303 303 303 303 303 303 302 302 301 301 300 300 300 300 300 300 300 301 301 302 303 304 304 304 304 303 303 302 302 302 302 302 302 302 303 303 304 305 306 306 307 307 306 306 305 305 305 305 305 305 305 305 305 305 305 306 306 306 307 307 308
Wind_Speed
7 6 10 11 7 5 7 10 12 11 12 16 19 17 10 10 10 14 10 10 10 8 7 9 10 9 10 10 10 7 5 6 7 6 6 7 8 8 9 10 12 13 14 14 15 15 15 17 21 25 27 30 32 33 34 36 37 39 39 39 40 40 39 40 42 43 42 40 40 40 39 39 39 40 40 40 38 37 36 36 37 37 37 39 40 40 40
9 9 9 8 6 5 7 10 11 12 14 16 18 15 12 12 13 12 8 10 11 9 8 10 10 8 7 6 4 3 5 6 7 7 7 7 7 8 10 11 12 13 14 15 15 15 15 15 18 22 25 28 31 33 34 36 38 40 40 39 39 39 40 42 43 42 40 39 39 39 39 39 40 40 40 39 37 37 38 38 38 38 38 39 40 40 39
8 9 7 6 8 8 9 10 10 11 13 15 15 13 10 10 11 10 9 9 9 8 6 7 9 5 2 4 5 6 7 7 7 7 8 8 9 9 11 12 11 12 13 13 13 14 15 16 20 24 26 29 32 33 34 36 38 39 39 39 39 40 42 43 42 40 39 39 38 39 40 40 39 39 39 38 38 39 39 39 40 40 40 40 41 40 39
5 6 6 10 13 12 10 12 11 10 10 10 10 10 9 10 10 10 12 10 8 7 6 7 9 8 6 7 9 9 8 6 5 7 9 9 10 10 10 11 11 12 13 13 13 15 16 18 22 26 28 29 29 31 33 36 38 37 38 38 39 41 42 41 39 38 38 38 38 39 39 39 38 38 38 39 39 39 40 41 41 41 41 42 41 39 38
5 7 7 10 11 9 8 8 7 8 10 10 9 8 9 11 11 10 12 11 8 8 7 7 9 10 10 10 8 8 7 5 5 8 9 9 10 9 8 8 10 12 13 13 14 16 16 18 24 30 32 30 31 35 38 38 36 35 37 38 39 40 39 37 37 38 37 37 38 38 38 38 37 37 38 39 40 41 41 42 42 41 42 41 40 39 38
4 9 9 7 5 5 5 2 1 4 8 11 13 13 11 11 12 11 10 8 8 9 9 10 13 13 8 5 4 4 4 4 4 6 8 8 9 9 8 7 9 10 11 11 12 14 17 22 28 31 31 32 34 36 36 34 34 36 38 38 39 38 38 38 39 38 37 38 38 38 38 37 37 37 39 40 41 41 42 41 40 40 40 40 39 39 40
3 7 6 3 6 7 4 5 5 4 4 3 7 14 16 13 13 13 10 8 9 10 11 13 14 10 3 4 4 4 4 3 2 5 6 6 7 9 8 7 8 9 9 10 10 12 18 24 26 26 28 30 30 29 30 32 34 37 38 38 38 37 36 37 37 37 37 38 38 37 37 37 37 38 39 40 41 41 40 40 40 40 39 39 39 39 39
2 3 2 4 7 8 8 6 7 7 6 9 9 9 14 11 9 10 10 10 9 9 10 11 8 5 6 5 3 3 3 2 0 3 5 6 7 8 8 8 9 9 9 10 11 13 16 19 21 23 27 29 27 26 30 33 33 34 34 33 33 33 33 35 37 38 38 37 36 35 36 36 36 37 39 40 41 40 39 39 38 38 38 38 38 38 38
2 3 4 4 6 10 7 3 4 4 2 4 4 4 8 7 3 6 8 10 10 8 8 7 5 6 6 2 1 1 2 2 1 2 4 5 7 7 8 8 8 8 9 12 14 14 13 15 18 21 22 24 24 24 27 29 29 29 29 29 31 32 33 35 36 37 37 35 34 34 34 35 36 38 39 40 40 40 38 37 36 36 36 37 37 37 36
3 3 4 3 3 5 3 2 1 1 3 4 3 3 6 6 3 2 5 8 10 9 6 5 6 6 5 3 5 3 2 3 3 3 4 4 5 6 7 7 6 7 7 10 15 16 15 16 21 22 21 22 24 23 23 25 26 27 28 30 32 33 34 36 36 36 36 36 35 36 37 39 40 40 41 41 40 40 39 37 36 36 36 35 35 36 37
4 4 4 3 3 4 5 4 4 4 3 1 4 2 5 5 8 10 7 7 10 10 7 7 8 7 6 7 6 2 2 3 3 3 4 4 4 5 6 6 6 7 7 4 10 14 15 16 19 22 23 24 24 22 23 26 26 27 30 33 35 36 36 36 35 35 36 38 38 39 39 41 41 41 41 41 40 39 39 38 37 36 35 34 33 35 38
6 6 5 3 3 5 4 3 6 7 3 3 5 3 6 6 12 13 10 10 11 9 7 9 10 8 7 6 4 1 1 2 3 3 4 4 5 5 7 9 8 8 8 4 4 5 7 12 17 20 23 24 22 21 23 23 23 27 32 36 37 37 35 34 34 37 39 40 40 41 41 42 41 40 40 38 37 37 37 36 34 33 34 34 33 35 37
7 8 5 4 4 4 3 4 7 7 3 3 5 5 4 9 15 13 10 10 9 5 5 7 8 5 3 4 5 4 3 2 2 3 3 2 3 5 7 11 11 11 12 12 11 10 6 5 15 20 22 21 19 20 20 20 24 31 34 33 33 33 32 32 35 38 40 42 43 44 44 43 41 40 40 38 37 36 35 33 32 32 33 33 33 34 36
6 6 5 4 5 3 2 3 3 4 2 2 3 5 6 10 14 13 10 8 7 4 3 3 3 5 6 7 8 6 5 4 3 4 4 3 5 6 8 12 13 11 12 14 15 16 15 8 7 17 21 19 16 16 17 20 28 31 27 24 26 28 29 31 33 35 38 41 42 42 41 39 38 39 39 38 37 36 34 33 33 33 33 33 33 33 34
5 4 5 6 5 3 3 3 1 4 1 2 4 7 8 8 12 12 9 7 8 7 3 1 4 8 9 8 8 7 6 6 5 6 6 7 8 8 9 12 14 12 10 12 14 16 17 16 10 5 13 15 15 16 18 24 28 25 21 23 25 26 27 29 32 34 37 39 39 38 36 36 37 37 37 38 37 37 36 34 32 32 32 32 32 31 31
5 5 6 5 4 3 4 2 2 2 1 3 4 5 5 6 9 9 7 7 8 8 5 2 3 6 7 7 7 7 6 6 7 8 9 9 9 9 10 11 13 13 11 11 14 17 17 18 18 12 5 4 8 11 14 17 19 20 22 24 24 25 27 30 31 34 35 36 37 36 35 37 37 36 36 37 38 38 38 36 33 31 31 31 31 29 29
4 5 5 3 5 3 1 2 4 5 1 4 5 4 2 3 5 6 6 7 8 9 7 4 2 4 6 6 7 7 7 7 7 9 9 8 8 9 10 11 13 14 12 11 13 16 18 19 18 17 15 10 4 2 6 7 9 16 21 22 23 26 29 30 31 32 33 33 35 36 36 37 37 37 36 35 34 36 37 38 37 35 34 33 32 29 29
6 7 5 5 6 3 3 4 5 6 4 3 5 5 3 2 3 4 4 5 7 9 9 6 5 5 6 6 6 7 7 7 8 9 9 9 9 9 10 13 14 13 13 13 13 14 16 18 17 16 15 14 10 8 7 5 4 10 16 20 23 25 28 29 31 32 31 32 34 35 36 37 38 38 38 36 34 34 33 33 34 34 33 33 32 30 30
6 5 3 5 5 4 4 4 5 7 5 2 2 4 5 6 6 5 3 3 5 8 10 9 7 7 7 6 5 6 8 8 8 9 10 10 11 11 13 14 15 13 12 13 13 13 15 17 17 15 14 14 13 11 9 6 3 3 8 15 20 22 25 28 29 30 31 32 32 34 35 37 37 37 36 36 35 33 32 31 29 28 28 30 31 31 30
6 5 2 3 4 4 3 4 4 5 4 2 3 5 6 8 8 9 7 4 2 5 9 9 8 8 8 7 6 6 6 6 7 7 8 9 10 11 12 14 15 14 13 12 13 13 14 16 16 15 15 16 16 15 13 9 5 3 3 7 13 17 20 23 25 28 31 33 32 32 34 36 36 36 36 35 35 35 36 36 33 29 28 29 29 30 29
8 9 5 3 4 1 2 5 5 4 3 2 5 7 7 9 9 10 10 9 5 2 8 9 8 7 7 7 5 5 5 5 5 6 7 8 9 9 11 13 14 13 12 13 14 14 14 15 16 16 17 18 18 18 17 14 10 6 4 4 6 8 11 14 17 20 25 28 30 31 33 34 36 37 38 38 38 39 42 45 44 41 38 34 29 25 23
7 7 5 4 4 2 2 5 7 5 3 4 7 7 5 6 8 9 10 11 8 5 6 9 9 6 5 7 4 2 5 5 5 5 6 7 7 8 10 12 13 13 12 12 12 12 13 15 16 16 17 18 18 18 17 15 12 8 5 4 4 4 4 5 6 8 11 14 16 19 22 25 29 33 36 39 41 42 44 46 48 49 47 43 39 36 31
8 8 7 4 0 1 3 5 8 6 4 5 8 6 4 5 6 8 9 10 10 8 8 8 10 8 6 9 6 1 5 4 4 6 7 7 8 9 11 11 11 12 12 11 10 10 10 12 13 14 15 16 16 15 15 14 12 9 6 5 4 4 5 5 6 6 6 7 8 9 11 13 16 20 25 31 36 39 41 43 47 49 48 48 50 50 46
13 14 10 6 3 1 1 4 7 5 3 4 9 7 4 6 7 8 8 8 9 9 8 9 11 9 7 11 7 1 5 5 5 6 8 10 11 11 11 11 10 10 10 10 9 9 8 9 10 11 12 12 12 12 12 12 11 10 8 7 6 7 8 7 8 9 9 10 11 11 11 12 13 13 15 20 26 29 32 36 43 47 48 48 51 50 47
13 12 7 5 5 3 2 3 5 5 1 3 8 8 7 8 8 8 7 7 8 8 8 9 10 8 7 10 7 3 5 6 7 8 9 11 12 12 12 12 11 10 9 9 10 10 9 8 8 8 8 8 9 9 10 11 12 12 11 10 9 8 9 9 9 8 8 8 9 9 10 11 11 12 12 14 17 19 21 26 34 41 47 51 53 51 50
11 8 6 5 5 1 3 3 4 4 3 3 6 9 10 9 8 7 7 7 7 8 7 7 7 8 9 9 6 5 6 6 8 9 8 8 10 11 12 12 12 11 11 11 12 12 10 9 9 9 9 9 8 7 7 10 13 14 13 12 11 9 9 10 10 8 7 6 5 5 7 8 10 12 14 15 17 16 16 19 23 27 36 47 53 53 50
8 5 4 3 3 4 4 3 4 5 5 5 6 7 9 9 8 6 6 7 7 8 7 6 5 6 8 8 8 7 6 7 8 9 8 7 9 11 13 14 15 15 14 14 14 13 12 11 11 12 13 12 9 7 8 10 13 13 11 10 8 7 7 8 7 6 6 6 5 5 6 5 5 8 11 16 19 20 20 22 24 27 29 34 43 48 47
6 4 4 3 4 4 3 3 5 6 6 6 6 6 8 9 8 6 5 4 4 5 6 6 5 4 5 8 8 6 6 8 8 7 7 8 12 15 15 15 16 17 17 16 16 15 14 14 14 14 15 14 11 9 9 10 10 10 9 8 7 7 6 6 5 5 6 6 6 6 6 6 4 6 9 14 20 25 27 26 27 33 34 33 36 41 44
4 4 4 4 3 3 4 5 6 6 6 5 5 6 7 8 8 7 5 3 1 2 3 5 6 5 4 6 6 5 5 6 7 7 8 12 16 18 17 15 16 19 19 19 19 18 16 15 14 14 14 14 12 11 10 10 10 9 9 8 8 7 6 5 5 6 7 9 9 8 8 8 6 6 9 9 10 13 17 19 26 38 41 40 41 40 39
4 4 3 4 6 8 7 6 6 7 6 6 5 5 5 6 7 6 5 4 3 2 2 2 3 3 3 3 4 3 3 4 6 8 11 15 18 19 19 18 17 17 17 18 19 19 18 16 15 14 13 13 12 12 11 10 10 9 8 8 8 7 6 5 6 8 9 10 10 9 10 12 12 11 13 16 17 16 7 7 20 35 38 35 40 43 38
4 2 5 6 7 8 8 6 6 6 6 6 6 5 4 5 6 6 5 5 4 2 1 0 1 2 2 2 3 4 6 8 10 12 16 19 20 21 22 21 17 14 14 17 19 20 19 17 16 15 13 12 11 11 11 10 9 9 9 9 9 8 6 4 5 8 10 10 10 9 10 12 14 15 16 18 22 27 20 9 4 24 35 31 33 39 39
3 5 8 7 6 7 6 5 6 7 6 6 6 6 5 4 4 5 5 5 4 4 3 2 1 2 3 4 6 7 9 11 13 16 18 20 21 21 22 21 20 18 18 20 22 22 22 20 18 16 14 12 11 10 10 9 8 8 8 9 9 8 6 5 5 8 10 10 9 7 7 10 14 17 18 16 15 22 23 13 12 20 31 30 29 34 39
5 7 8 8 9 9 8 6 5 6 6 5 5 4 4 4 4 4 5 5 4 4 3 3 2 4 6 8 8 8 9 12 14 15 16 18 19 20 20 20 21 22 22 23 24 25 24 22 18 16 15 14 12 10 9 8 8 8 7 7 7 7 7 6 6 6 9 11 10 8 8 12 16 17 17 16 13 16 21 19 16 21 26 27 26 29 32
4 4 4 5 7 9 10 8 6 6 6 5 4 4 4 4 4 4 5 6 5 5 5 5 5 8 10 11 10 10 10 10 10 9 11 15 17 19 19 20 22 24 26 28 28 26 25 22 19 17 17 16 14 12 11 9 8 8 7 7 7 7 7 7 7 7 8 9 10 11 11 13 14 15 16 16 16 15 16 18 20 24 26 27 27 28 29
5 6 6 5 4 6 8 8 6 6 6 6 5 5 4 4 5 6 6 7 7 7 8 9 11 12 13 11 10 9 9 9 8 9 12 14 16 17 19 21 22 23 25 28 29 26 24 22 20 18 19 19 17 15 13 11 9 8 8 8 7 7 7 7 7 7 7 7 8 10 12 12 12 11 12 13 14 15 16 16 17 20 22 23 25 28 28
6 7 7 5 5 6 7 6 6 6 6 5 5 5 6 6 7 7 8 8 9 11 12 14 14 13 11 10 9 9 10 11 12 13 14 14 16 18 20 20 20 19 19 22 26 27 23 20 19 19 20 20 19 17 15 12 10 9 8 7 7 7 7 7 7 7 7 6 6 7 9 10 11 10 10 10 10 12 14 14 14 16 19 21 23 25 26
9 8 6 5 6 7 7 6 6 6 6 6 6 6 7 7 9 11 11 11 11 13 15 15 13 11 10 12 13 14 15 16 16 16 16 15 17 20 20 19 18 17 13 13 20 25 23 21 20 20 20 20 19 18 15 12 10 8 7 6 6 6 6 7 9 8 7 5 5 5 6 8 9 10 9 9 9 9 11 13 15 17 19 21 24 25 25
10 9 7 7 7 8 8 8 9 9 9 8 8 8 9 10 12 15 15 13 13 15 17 17 15 14 15 16 16 17 18 18 18 17 17 17 19 20 18 16 17 15 11 13 19 24 24 22 23 23 22 21 19 17 16 14 11 9 7 6 6 6 6 7 9 9 7 4 3 4 5 7 8 8 8 8 8 8 9 11 14 17 19 21 24 25 24
9 9 9 8 8 7 8 10 12 12 12 10 9 9 12 16 18 18 16 15 15 16 17 18 17 15 15 14 13 14 17 19 19 18 18 19 20 20 20 21 22 21 18 21 25 26 25 24 25 25 25 23 20 18 17 16 15 12 10 8 7 7 8 8 9 8 7 5 4 4 5 5 6 7 7 7 7 7 7 8 11 14 17 19 22 24 24
10 11 11 10 9 8 8 9 10 11 14 14 12 12 14 17 18 16 15 15 16 17 18 18 16 13 12 11 11 13 17 21 21 20 20 20 21 19 18 22 26 27 26 28 30 29 29 29 27 25 24 23 21 19 18 17 16 15 13 11 9 8 7 7 6 6 6 5 5 5 5 5 5 6 7 8 8 8 8 9 10 12 15 18 20 21 21
12 12 12 12 11 11 10 10 11 12 15 17 18 18 18 18 17 15 13 14 17 19 20 20 17 14 13 15 16 17 20 23 24 24 22 20 18 13 11 15 23 27 29 31 33 33 33 32 30 27 25 23 20 18 17 16 16 16 15 12 11 9 7 6 5 5 6 8 8 7 6 5 5 5 7 9 10 10 10 11 11 12 15 17 18 19 19
12 13 13 13 12 11 11 11 11 13 14 17 20 22 22 22 21 19 17 18 20 21 20 20 19 18 18 20 21 21 21 22 24 25 25 23 19 13 10 14 22 27 30 33 35 35 34 33 31 28 27 25 23 21 19 18 17 17 15 14 13 12 10 9 9 8 9 10 10 9 6 5 4 4 5 9 10 10 10 12 14 15 16 18 18 18 19
13 13 12 10 9 10 11 12 12 13 14 17 21 23 23 23 24 22 21 21 21 21 20 21 21 21 22 23 22 20 19 19 20 21 23 26 27 24 19 18 23 28 31 34 36 36 34 33 31 30 30 30 28 26 25 24 22 20 18 16 15 14 13 11 10 9 10 12 12 10 7 5 5 6 7 6 6 7 8 10 13 15 16 17 18 18 19
15 14 12 11 12 13 14 14 14 13 13 17 22 25 24 23 24 23 22 22 21 21 22 22 21 21 23 24 21 18 16 18 19 18 18 19 22 25 25 25 26 30 33 35 36 35 33 32 32 33 34 34 32 31 31 30 28 27 25 22 20 18 17 15 13 11 9 10 10 8 6 4 5 7 7 6 4 4 6 6 9 11 12 15 17 18 18
17 18 18 17 17 16 14 12 13 14 17 21 25 25 23 23 24 24 24 24 23 22 23 23 21 21 22 22 22 22 23 23 23 21 16 12 11 16 22 26 29 31 34 36 36 34 33 33 34 36 36 36 36 36 36 35 34 33 32 30 28 26 24 22 20 17 15 13 12 10 7 4 3 4 5 4 4 3 4 4 5 6 8 11 14 17 18
19 21 22 21 18 17 16 17 20 23 25 24 21 20 21 23 25 25 26 26 25 24 25 26 25 23 21 21 22 25 27 28 28 27 23 17 14 16 22 26 29 31 35 36 35 33 33 34 37 38 37 37 38 38 38 38 38 38 37 36 35 33 31 28 26 23 21 18 16 13 9 6 4 3 3 3 3 4 3 3 5 5 5 7 10 12 15
19 20 20 19 19 20 22 25 26 26 22 16 11 12 18 23 25 25 26 27 27 27 27 28 27 26 25 24 23 21 21 22 24 25 25 24 23 23 26 29 31 33 34 34 34 33 33 35 36 37 37 37 38 38 38 38 39 39 39 39 39 37 36 34 32 30 27 24 21 18 16 12 8 6 4 4 5 7 5 2 3 5 4 5 7 9 13
19 17 18 20 22 23 24 25 22 17 13 11 11 12 17 22 24 24 25 27 28 28 28 29 28 28 28 28 26 24 22 20 17 17 20 24 26 27 27 29 30 33 34 34 34 34 34 34 35 36 37 38 38 37 37 38 39 39 39 40 40 39 39 38 36 34 33 31 28 26 24 22 19 15 12 9 8 9 8 5 4 5 4 3 5 7 11
19 19 20 22 23 22 21 19 14 10 11 14 16 15 17 21 23 22 22 23 25 26 27 27 27 27 28 29 28 28 28 26 21 19 22 26 28 28 28 29 30 32 33 33 32 32 33 34 34 35 36 36 36 35 36 37 38 39 39 39 38 38 38 37 36 36 37 36 34 31 29 27 25 23 20 17 15 14 13 11 10 8 5 2 3 5 8
19 19 18 19 19 19 18 15 12 12 15 17 17 17 19 20 19 18 18 21 22 23 24 27 27 27 27 28 28 27 28 28 27 26 27 28 29 29 29 30 30 31 31 31 30 29 30 31 32 33 34 34 34 34 34 35 37 37 38 38 38 37 37 36 37 37 37 37 37 35 33 31 28 26 24 23 21 19 17 15 13 11 8 6 4 4 6
17 16 16 16 18 20 21 19 17 17 19 20 19 20 21 20 18 17 19 21 20 19 20 23 25 25 25 26 27 26 26 27 27 28 28 28 28 29 29 29 29 29 29 29 29 28 27 27 28 29 30 31 31 32 33 33 34 34 35 35 36 36 35 35 36 36 35 35 35 35 34 33 31 29 28 26 25 22 20 19 17 15 13 11 9 7 5
20 19 19 19 20 21 23 24 23 21 21 21 21 20 19 19 18 18 19 20 20 19 18 19 20 22 23 24 25 25 25 25 26 27 27 27 27 27 27 27 27 27 27 26 26 26 26 26 26 26 27 27 28 29 30 31 31 31 31 31 31 31 31 31 32 32 32 32 32 32 32 32 32 31 30 28 27 25 24 23 21 19 17 15 12 10 8
Wind_Direction
304 292 281 277 278 252 239 255 258 249 232 214 214 220 197 162 202 236 225 185 198 232 234 229 228 213 216 230 231 234 242 244 253 261 253 237 232 231 221 210 204 200 201 202 200 200 198 196 197 197 198 200 200 201 203 202 202 203 203 202 203 204 205 207 210 211 210 210 209 209 209 209 209 209 210 212 211 211 212 213 216 218 220 222 223 223 224
308 293 279 274 280 279 267 262 257 254 247 232 226 224 206 198 222 241 221 187 197 218 219 223 230 215 210 228 224 205 226 240 248 258 261 252 238 230 226 222 214 207 205 203 200 199 196 194 196 196 197 198 198 200 201 200 202 203 201 201 202 203 205 208 210 210 209 208 208 207 208 208 208 208 209 210 209 210 212 213 215 217 218 221 222 222 222
306 295 298 302 302 299 286 272 262 257 257 250 241 233 216 212 226 239 234 206 210 239 243 238 251 263 289 286 268 243 236 237 238 245 253 250 239 229 224 223 220 215 213 209 201 198 196 196 195 195 197 198 198 200 199 199 201 201 199 200 201 203 207 209 209 208 207 206 206 206 207 207 207 207 207 207 208 210 211 212 214 215 217 219 220 221 221
293 292 325 325 317 313 289 267 262 257 251 252 250 234 214 210 211 223 236 229 225 246 253 256 267 281 281 260 253 251 253 258 253 245 245 245 241 234 226 222 220 217 216 211 203 201 201 198 196 196 197 196 197 199 199 201 201 199 198 200 202 205 208 208 207 206 206 205 205 206 206 206 205 206 206 207 208 209 210 212 213 214 215 218 219 219 219
285 288 314 324 321 314 282 262 263 252 235 233 245 245 229 216 203 209 228 227 216 212 209 227 252 256 252 247 244 246 254 269 264 250 250 253 253 249 237 227 221 220 219 212 208 207 204 199 200 200 196 193 196 199 200 200 197 195 197 201 203 206 207 206 206 206 204 203 204 205 205 205 204 204 204 206 208 209 210 212 213 213 214 216 217 218 218
278 288 312 329 302 261 252 263 325 271 247 233 233 237 235 219 211 224 236 221 204 198 185 198 226 237 238 228 208 198 210 229 254 263 266 267 270 271 259 238 228 227 225 219 214 211 208 206 206 204 199 198 200 201 198 196 194 194 198 201 203 206 205 204 205 204 203 203 204 205 204 203 203 203 204 207 208 210 212 212 212 212 214 215 215 216 218
262 296 330 317 234 240 291 344 357 334 314 308 258 241 234 223 218 232 245 234 215 202 192 205 220 220 170 121 124 129 147 175 227 274 278 278 282 282 274 259 241 229 223 222 219 212 211 210 206 202 202 202 202 199 195 194 195 196 198 200 203 204 204 204 204 202 202 203 203 203 202 202 202 203 205 208 209 211 212 212 212 213 213 214 215 216 217
230 295 302 227 244 293 320 337 354 2 14 14 352 272 247 239 221 219 233 241 235 217 208 214 213 170 122 102 101 118 111 107 157 283 290 300 303 295 290 279 257 235 217 212 214 214 214 211 205 201 203 201 197 194 194 195 197 198 198 200 203 203 203 203 203 202 202 202 201 201 201 201 202 204 206 209 210 211 212 214 214 214 214 215 215 215 216
186 224 253 260 300 318 320 341 14 21 0 346 348 265 269 277 235 207 220 233 245 243 224 209 181 141 121 97 265 217 53 35 329 287 290 298 303 300 295 285 273 261 234 213 210 210 206 202 202 203 203 199 194 192 193 194 196 196 198 201 203 204 204 204 203 203 201 199 199 199 200 201 203 206 208 210 211 211 212 213 214 214 214 215 216 215 215
183 208 263 289 310 295 258 236 315 290 262 260 179 181 283 305 342 308 246 231 238 240 218 182 163 138 134 193 239 260 355 356 341 328 309 300 304 303 301 304 310 309 281 230 211 203 195 195 200 200 196 192 191 191 191 192 193 193 198 203 204 204 206 205 204 202 200 199 199 199 200 202 204 206 209 210 211 211 212 212 213 214 214 215 216 215 215
179 192 227 231 240 246 233 248 286 292 282 218 125 150 273 309 0 349 316 268 249 235 200 164 151 144 169 215 236 255 331 336 344 338 318 314 312 302 313 332 333 325 317 255 206 196 191 194 196 193 190 187 186 189 191 191 192 196 201 204 204 205 206 205 203 201 200 200 201 201 202 205 206 207 208 210 211 212 212 213 213 214 214 214 215 215 216
190 195 219 228 238 251 259 298 312 312 315 118 129 210 259 316 342 334 314 291 271 247 207 169 161 172 196 203 202 177 17 342 337 333 318 315 322 329 344 355 358 1 15 54 142 162 180 192 191 187 186 186 186 191 194 193 197 204 207 207 205 206 205 203 201 200 201 202 203 203 205 206 207 208 209 210 211 212 213 213 213 213 213 213 214 215 216
205 201 223 255 255 252 272 302 311 321 354 112 162 212 273 321 321 314 307 298 286 258 218 193 181 191 184 130 118 103 65 41 6 348 327 306 339 357 4 8 15 28 41 55 62 52 50 174 189 186 183 184 191 193 191 195 206 211 212 210 207 206 204 202 202 202 202 203 205 206 208 207 205 207 208 209 210 210 211 213 212 212 211 212 213 215 216
218 199 209 246 258 258 251 258 304 355 50 167 230 282 314 318 311 311 314 314 322 335 279 231 168 137 118 102 102 100 76 62 42 15 20 47 36 24 22 22 25 35 44 49 49 41 37 52 170 187 184 182 188 188 190 205 214 214 214 212 209 207 205 203 204 204 205 207 208 209 210 207 205 206 207 207 208 209 209 210 210 211 210 210 211 214 215
215 197 200 219 230 239 238 232 6 32 64 225 284 312 322 324 321 321 324 336 355 11 11 17 107 120 118 103 97 92 71 61 53 33 32 44 40 31 28 26 27 34 42 43 41 37 37 44 57 152 184 185 185 186 200 215 218 214 214 213 210 208 206 206 207 208 209 210 210 211 210 208 207 207 205 204 205 206 206 207 208 209 209 209 209 210 212
200 196 205 203 185 208 238 213 116 104 232 271 288 300 320 337 332 324 328 351 12 27 33 33 87 101 101 100 99 89 74 65 60 49 41 38 38 37 33 26 27 35 45 43 38 37 37 40 45 51 72 172 194 201 218 229 223 214 213 212 209 208 209 209 210 211 211 212 212 212 211 208 208 209 207 205 204 203 202 201 203 206 207 207 207 206 206
248 239 227 165 134 162 210 122 123 131 132 305 293 280 298 345 333 328 334 348 14 33 25 354 16 61 70 84 90 86 84 74 63 59 55 46 44 47 44 37 33 38 46 49 46 42 36 34 38 42 44 46 42 306 294 284 244 220 213 209 207 208 210 212 213 213 214 214 214 213 211 209 208 209 208 207 206 204 202 199 199 200 201 203 202 201 200
285 262 230 142 127 147 148 128 124 112 83 349 316 312 320 327 323 331 352 357 14 37 38 15 4 19 38 60 69 69 70 64 53 52 52 46 44 48 48 44 41 45 49 49 50 47 38 35 36 38 42 46 40 17 358 343 267 228 217 211 209 210 211 213 214 213 213 214 215 215 214 211 211 211 209 207 206 207 206 205 204 201 198 196 195 197 199
279 251 196 126 134 164 155 134 113 96 86 45 3 351 334 328 326 327 356 31 40 56 57 40 12 0 12 30 44 52 56 53 47 44 41 39 37 37 38 37 38 45 50 48 48 46 38 34 35 36 39 39 33 25 21 21 3 254 226 218 217 215 214 215 215 213 213 214 215 215 214 213 214 214 212 209 207 206 205 206 208 207 201 195 193 194 194
270 263 259 108 135 167 154 129 108 100 112 120 65 35 355 341 337 330 328 334 42 82 76 60 27 356 353 4 19 37 46 45 46 47 45 44 43 40 38 34 33 37 40 40 43 43 38 33 32 34 35 33 28 25 22 16 6 336 263 234 230 228 225 223 219 215 215 215 215 214 215 215 215 215 213 211 209 208 206 204 202 202 202 202 201 197 192
282 270 252 146 129 139 120 119 109 100 117 114 76 55 19 352 343 340 333 321 318 72 92 86 61 10 338 334 351 21 41 39 41 47 48 49 49 46 44 43 41 42 40 37 36 33 29 29 30 31 32 30 27 25 21 15 8 357 335 295 265 253 246 241 233 227 224 222 220 218 217 216 217 217 215 212 211 212 212 209 205 203 201 200 199 193 186
274 262 238 178 157 191 181 142 121 114 134 116 89 74 48 10 351 348 338 323 325 13 65 82 80 53 331 300 299 41 66 55 48 49 49 50 50 45 46 49 49 48 46 43 41 36 28 29 32 32 32 32 29 25 21 17 13 7 352 333 313 296 292 284 270 259 253 247 243 239 234 229 225 222 219 216 215 215 215 213 210 208 204 198 191 183 176
271 283 288 285 156 166 199 155 126 135 176 126 97 82 62 49 23 3 346 329 333 357 22 48 65 53 337 294 276 109 78 63 60 61 57 57 55 46 44 48 48 46 44 42 41 36 30 34 40 39 36 34 28 22 17 14 12 12 11 7 3 0 0 359 356 349 339 329 318 301 286 276 261 244 231 224 220 219 219 215 210 207 204 198 191 184 180
273 279 283 292 318 327 207 144 122 133 196 129 106 95 65 55 41 21 4 343 340 353 4 23 44 38 332 293 286 29 66 52 51 60 60 59 58 54 49 48 48 45 42 39 37 31 28 38 49 49 42 33 22 16 16 15 15 17 19 21 27 27 20 14 8 5 4 2 358 350 340 329 316 293 265 242 230 226 223 218 211 205 200 194 188 185 187
259 265 272 288 306 335 80 103 105 108 117 109 107 98 76 59 46 31 15 357 354 0 5 18 30 17 320 289 293 359 53 45 38 49 56 53 51 50 45 41 39 37 38 41 42 39 36 37 45 49 44 28 15 20 32 31 25 21 20 20 24 24 23 21 19 18 15 9 3 358 349 338 327 314 292 266 248 233 216 207 206 202 196 190 186 185 190
249 257 271 282 282 240 112 94 88 98 92 76 93 101 93 78 61 41 17 1 360 1 7 22 17 340 309 296 310 359 37 43 39 44 49 46 42 40 36 33 33 36 40 41 41 42 42 39 37 33 25 13 6 12 23 19 11 8 8 11 15 15 13 12 14 21 24 20 16 1 343 330 317 302 284 269 261 246 212 186 182 187 188 188 186 184 183
255 246 250 257 237 203 176 145 126 127 117 95 97 110 111 101 86 62 32 13 5 1 7 17 357 316 312 325 342 2 24 36 39 41 41 38 33 30 30 34 37 40 41 40 38 39 41 42 41 35 25 16 8 357 350 352 355 358 1 5 10 15 12 7 10 23 31 35 38 27 14 6 345 316 291 271 258 242 223 202 183 173 171 173 174 172 171
255 232 222 224 211 197 175 136 125 126 118 114 121 127 122 116 110 102 85 48 7 354 1 6 355 337 337 344 349 5 27 34 37 38 35 34 34 33 36 41 43 42 41 39 35 34 35 37 40 40 35 27 21 13 5 4 10 19 26 31 32 32 31 28 33 40 43 48 50 48 54 61 40 3 334 295 261 238 228 217 189 161 148 144 149 156 160
251 239 223 210 183 156 128 114 118 120 116 116 124 125 123 123 121 119 122 130 116 7 5 358 356 3 356 340 343 6 32 38 40 39 36 37 38 37 39 45 46 43 39 34 28 27 28 30 31 34 35 31 28 27 27 30 37 40 41 43 45 45 47 52 58 57 58 63 64 63 67 62 37 17 14 344 289 247 230 209 166 139 130 131 133 136 142
277 257 209 171 155 147 137 126 126 127 123 118 116 118 125 126 123 122 125 126 112 78 16 330 342 12 16 346 347 10 41 57 58 54 48 43 41 38 39 42 44 39 32 25 20 19 21 24 24 26 31 34 34 34 37 43 49 52 54 59 62 59 53 58 72 74 72 72 74 74 73 68 56 46 44 44 50 57 50 207 158 128 117 121 125 124 126
292 209 149 145 149 145 136 130 129 126 122 122 124 125 127 126 123 125 124 119 118 120 120 305 0 32 29 18 24 39 52 58 57 55 51 46 41 39 40 42 44 40 31 26 22 19 21 24 23 23 30 35 32 31 36 46 55 63 71 77 77 70 62 71 96 95 86 80 81 82 82 81 79 72 61 55 63 70 59 8 61 105 104 106 113 119 125
224 143 130 130 131 122 113 114 124 124 127 137 139 135 139 143 135 129 124 121 130 135 120 98 80 60 57 59 57 55 57 58 55 52 49 44 40 38 40 43 45 44 38 34 31 27 27 26 23 23 31 34 30 26 28 36 48 60 73 80 78 77 80 84 91 96 92 88 86 86 88 92 93 91 86 76 78 90 90 62 38 79 97 104 114 125 134
160 142 137 142 141 133 127 127 128 124 128 138 140 135 139 146 140 130 123 119 118 114 99 88 83 79 77 74 66 60 60 59 54 50 47 43 38 38 40 44 46 44 40 38 37 36 34 32 29 28 31 33 34 35 33 35 47 61 72 73 69 72 81 80 77 79 81 80 80 78 82 92 96 98 101 103 101 107 113 112 99 94 101 109 122 134 142
117 116 121 136 140 138 139 140 137 130 128 127 125 122 124 128 128 125 118 111 104 99 99 101 95 87 82 76 65 58 58 58 53 47 45 43 42 43 44 47 48 47 44 40 37 36 37 38 38 39 37 34 36 42 45 46 55 62 66 68 68 71 73 71 71 71 66 66 75 79 79 87 96 102 107 112 113 110 110 113 114 115 117 122 130 137 140
79 84 81 76 81 109 123 126 128 131 130 124 117 113 111 112 112 107 103 102 104 106 105 100 90 82 77 71 63 57 56 57 56 53 49 47 47 47 48 47 47 46 43 38 34 32 36 41 43 45 45 40 38 40 44 50 57 61 63 69 74 75 71 65 69 79 78 70 72 78 77 80 90 98 102 104 107 107 103 101 106 113 118 122 128 133 135
58 78 87 84 76 84 94 98 105 113 113 109 108 106 100 96 94 90 89 93 98 102 99 90 83 77 71 66 64 62 57 56 57 54 50 49 51 51 50 46 40 39 39 34 28 28 33 39 41 44 48 47 42 38 35 37 44 51 56 67 78 81 83 85 85 89 95 92 82 80 85 88 89 89 86 82 85 93 100 101 104 110 116 123 130 135 136
45 53 67 77 74 72 71 75 88 97 91 85 87 89 88 88 86 83 82 83 87 93 91 85 80 78 73 68 67 63 57 55 56 55 53 52 53 52 49 42 36 36 34 22 18 23 31 37 39 42 46 46 45 42 36 33 38 47 51 63 80 87 91 95 93 88 87 98 112 120 118 111 103 98 95 92 90 94 103 110 118 125 131 137 141 144 146
45 43 47 57 64 67 64 64 73 82 83 78 72 70 74 81 82 80 76 72 76 85 88 85 82 79 74 68 64 57 52 52 56 57 55 54 53 52 48 39 34 33 28 22 25 29 35 40 42 42 41 40 41 43 43 40 41 47 51 55 67 77 78 81 86 87 85 95 132 144 135 124 119 115 112 110 110 112 117 123 128 133 139 145 150 152 152
46 42 41 46 57 68 69 65 65 69 73 75 72 71 76 81 82 80 76 70 69 77 83 84 81 76 69 64 60 54 53 55 58 58 56 54 54 54 49 41 36 37 38 39 40 40 42 45 45 43 40 37 36 39 44 45 44 45 46 43 44 53 60 60 65 77 90 107 137 149 143 135 134 135 134 131 130 133 134 132 131 134 141 148 155 158 159
43 42 40 40 46 58 65 64 61 61 65 68 65 64 72 80 82 81 75 70 69 73 76 78 77 72 65 64 65 61 59 60 60 59 57 55 53 52 48 37 34 37 43 45 45 44 44 46 46 43 40 38 36 35 38 43 43 43 43 42 39 39 42 43 45 51 59 71 91 110 121 128 137 149 154 152 150 155 158 154 149 150 154 158 163 166 167
41 44 43 42 41 42 48 56 58 56 57 61 63 63 67 74 77 76 72 72 73 73 73 75 77 76 73 74 73 69 67 65 61 57 55 52 47 47 45 33 28 34 44 49 48 47 46 44 42 40 39 39 39 37 36 37 38 39 40 40 41 43 48 57 63 60 50 51 60 70 86 116 142 157 157 154 157 169 179 178 174 172 172 171 171 172 172
41 45 49 49 46 42 43 53 60 58 53 56 62 66 68 71 73 74 73 72 72 72 70 70 73 75 76 75 72 68 66 66 64 60 57 52 45 43 43 35 31 37 47 51 49 47 45 41 38 37 40 42 45 47 47 44 42 40 39 37 37 40 45 50 57 64 67 66 62 56 64 99 128 126 128 144 159 174 182 181 180 181 181 179 177 177 177
42 45 49 51 52 52 51 54 61 63 56 53 58 64 68 70 72 73 71 68 67 67 65 63 63 66 69 69 68 63 57 57 60 61 60 55 48 45 44 41 38 42 48 51 48 45 43 40 37 39 43 47 49 51 53 53 50 47 44 42 39 38 37 36 37 48 65 74 74 67 61 71 78 67 70 98 137 157 165 175 182 184 182 178 175 175 177
42 43 45 44 45 49 51 50 53 59 59 57 58 62 65 67 69 70 70 67 63 63 63 60 58 60 63 64 64 60 53 50 52 55 58 55 47 41 41 45 47 47 49 51 49 46 42 40 41 44 48 49 50 51 52 51 50 48 47 45 41 38 34 29 24 24 36 52 59 57 48 43 52 56 56 63 93 118 129 155 177 183 180 174 168 167 171
41 41 41 41 41 43 45 49 54 60 63 62 58 55 57 62 65 66 67 66 61 59 60 60 58 59 64 68 70 69 65 59 55 53 55 55 44 37 41 47 50 50 51 52 50 46 43 44 47 49 50 49 50 50 49 47 46 46 46 45 43 40 36 31 26 21 18 18 19 19 15 11 24 42 39 26 26 56 90 125 152 164 169 168 163 161 164
40 39 38 38 37 35 39 48 56 58 59 59 55 48 50 59 63 63 63 65 64 61 61 61 59 59 63 69 73 73 70 65 59 56 58 61 58 50 51 54 54 54 55 54 50 46 45 48 50 51 50 50 50 49 47 45 44 44 43 42 41 40 38 36 34 33 31 28 24 21 16 6 359 19 39 45 53 65 94 146 155 152 160 166 163 165 171
40 39 37 37 37 36 38 45 50 50 49 50 50 46 51 59 64 65 65 67 67 65 63 62 60 59 59 61 63 66 69 68 60 54 55 61 63 58 57 59 60 60 59 57 53 50 50 51 51 51 51 51 51 49 46 45 45 44 43 42 41 39 38 38 38 37 38 37 36 34 33 30 26 25 34 56 70 66 62 95 139 134 147 174 182 188 194
40 37 35 36 38 38 38 42 45 44 41 43 49 54 59 64 65 65 66 68 67 64 62 60 58 57 59 60 60 61 66 71 66 52 51 59 63 60 58 59 61 62 61 59 56 54 54 53 52 51 51 51 50 49 47 47 46 45 44 43 42 40 39 39 38 38 39 39 38 36 36 36 36 35 33 33 40 44 39 37 58 78 93 142 180 193 200
41 39 38 38 37 36 37 39 39 35 37 44 49 55 63 66 63 58 57 63 65 62 59 57 55 55 57 59 60 60 64 70 71 65 60 62 64 63 61 61 61 62 62 61 58 55 54 54 52 51 51 51 51 50 49 49 48 48 47 45 44 43 42 41 40 41 41 41 40 39 38 37 37 39 39 38 36 37 38 38 39 44 54 90 157 184 195
40 40 39 38 37 37 38 38 37 36 40 46 50 54 60 64 62 54 51 57 63 63 59 56 53 52 54 58 60 61 63 66 68 67 66 65 64 64 64 64 63 62 63 62 60 57 55 54 53 53 53 53 52 51 51 50 50 50 49 47 46 45 43 42 41 42 42 42 42 42 41 40 38 38 39 40 40 42 44 47 49 53 63 78 101 142 176
40 39 40 41 42 43 43 43 44 46 49 52 55 56 58 62 63 56 52 55 59 61 60 57 53 50 52 56 58 59 61 63 64 65 65 66 65 65 65 66 65 64 63 62 60 58 56 55 54 54 54 54 53 53 52 51 50 49 49 48 47 46 45 43 42 42 42 43 44 45 45 44 42 40 39 39 40 41 43 46 48 51 55 61 69 86 112
44 42 42 44 46 46 45 44 45 49 54 57 58 58 59 62 63 58 53 53 56 59 62 62 56 51 52 56 58 59 60 62 62 63 63 64 64 64 64 64 63 63 62 61 60 58 57 57 56 55 54 54 54 53 53 52 51 50 49 48 48 48 48 47 46 44 44 44 45 46 47 48 48 47 45 44 43 42 43 44 44 46 47 50 54 61 72